Location: Nelson
(41.2830°S, 173.2830°E)
Time: 15:25:19
(UTC+12:00)

ATLAS 3B R/B - Pass Details

Date: 14 May 2021
Orbit: 1006 x 1189 km, 63.8° (Epoch: 17 June)

Event Time Altitude Azimuth Distance (km) Brightness Sun altitude
Rises 18:27:45 0° 328° (NNW) 4,075 6.5 -13.0°
Reaches altitude 10° 18:30:29 10° 328° (NNW) 3,117 5.8 -13.5°
Maximum altitude 18:38:01 90° 251° (WSW) 1,190 2.9 -14.9°
Drops below altitude 10° 18:45:27 10° 146° (SE) 3,074 4.7 -16.3°
Enters shadow 18:45:30 10° 146° (SE) 3,089 4.7 -16.3°
